| time (UTC) | temp C | wind direction | speed KPH | gust KPH | rain 1hr cm | rain 24hr cm | rain mn cm | humidity % | barometer mb |
| 20260505035031 | 15 | 190 | 0.0 | 8.0 | 0.00 | 0.00 | 0.00 | 78 | 1011.5 |
| 20260505034534 | 15 | 192 | 1.6 | 9.7 | 0.00 | 0.00 | 0.00 | 78 | 1011.4 |
| 20260505034031 | 15 | 217 | 3.2 | 9.7 | 0.00 | 0.00 | 0.00 | 78 | 1011.5 |
| 20260505033531 | 15 | 225 | 1.6 | 11.3 | 0.00 | 0.00 | 0.00 | 77 | 1011.4 |
| 20260505033035 | 15 | 212 | 6.4 | 11.3 | 0.00 | 0.00 | 0.00 | 78 | 1011.5 |
| 20260505032530 | 15 | 222 | 3.2 | 9.7 | 0.00 | 0.00 | 0.00 | 77 | 1011.4 |
| 20260505032033 | 15 | 187 | 3.2 | 9.7 | 0.00 | 0.00 | 0.00 | 77 | 1011.5 |
| 20260505031530 | 15 | 231 | 3.2 | 8.0 | 0.00 | 0.00 | 0.00 | 76 | 1011.5 |
| 20260505031030 | 16 | 220 | 3.2 | 12.9 | 0.00 | 0.00 | 0.00 | 75 | 1011.4 |
| 20260505030529 | 16 | 194 | 3.2 | 14.5 | 0.00 | 0.00 | 0.00 | 75 | 1011.4 |
| 20260505030029 | 16 | 163 | 4.8 | 11.3 | 0.00 | 0.00 | 0.00 | 74 | 1011.5 |
| 20260505025529 | 16 | 229 | 6.4 | 16.1 | 0.00 | 0.00 | 0.00 | 74 | 1011.5 |
| 20260505025029 | 16 | 195 | 8.0 | 16.1 | 0.00 | 0.00 | 0.00 | 74 | 1011.5 |
| 20260505024540 | 16 | 213 | 6.4 | 16.1 | 0.00 | 0.00 | 0.00 | 74 | 1011.5 |
| 20260505024028 | 16 | 209 | 8.0 | 16.1 | 0.00 | 0.00 | 0.00 | 74 | 1011.5 |
| 20260505023528 | 16 | 223 | 6.4 | 19.3 | 0.00 | 0.00 | 0.00 | 73 | 1011.5 |
| 20260505023028 | 16 | 217 | 8.0 | 19.3 | 0.00 | 0.00 | 0.00 | 74 | 1011.5 |
| 20260505022530 | 16 | 219 | 8.0 | 16.1 | 0.00 | 0.00 | 0.00 | 74 | 1011.6 |
| 20260505022028 | 16 | 217 | 9.7 | 17.7 | 0.00 | 0.00 | 0.00 | 74 | 1011.6 |
| 20260505021530 | 16 | 231 | 8.0 | 17.7 | 0.00 | 0.00 | 0.00 | 74 | 1011.7 |
| 20260505021027 | 16 | 200 | 9.7 | 19.3 | 0.00 | 0.00 | 0.00 | 74 | 1011.7 |
| 20260505020528 | 16 | 217 | 11.3 | 19.3 | 0.00 | 0.00 | 0.00 | 73 | 1011.7 |
| 20260505020028 | 15 | 217 | 11.3 | 17.7 | 0.00 | 0.00 | 0.00 | 74 | 1011.7 |
| 20260505015528 | 15 | 209 | 8.0 | 16.1 | 0.00 | 0.00 | 0.00 | 73 | 1011.6 |
| 20260505015028 | 16 | 224 | 8.0 | 17.7 | 0.00 | 0.00 | 0.00 | 72 | 1011.6 |
| 20260505014532 | 16 | 215 | 8.0 | 17.7 | 0.00 | 0.00 | 0.00 | 71 | 1011.7 |
| 20260505014026 | 16 | 236 | 8.0 | 19.3 | 0.00 | 0.00 | 0.00 | 69 | 1011.6 |
| 20260505013527 | 16 | 200 | 11.3 | 19.3 | 0.00 | 0.00 | 0.00 | 68 | 1011.5 |
| 20260505013029 | 16 | 213 | 11.3 | 19.3 | 0.00 | 0.00 | 0.00 | 67 | 1011.5 |
| 20260505012525 | 16 | 252 | 9.7 | 20.9 | 0.00 | 0.00 | 0.00 | 67 | 1011.5 |
| 20260505012025 | 16 | 218 | 11.3 | 25.7 | 0.00 | 0.00 | 0.00 | 66 | 1011.4 |
| 20260505011526 | 16 | 228 | 16.1 | 25.7 | 0.00 | 0.00 | 0.00 | 66 | 1011.4 |
| 20260505011024 | 16 | 221 | 11.3 | 19.3 | 0.00 | 0.00 | 0.00 | 68 | 1011.4 |
| 20260505010524 | 16 | 206 | 11.3 | 16.1 | 0.00 | 0.00 | 0.00 | 70 | 1011.4 |
| 20260505010023 | 16 | 223 | 8.0 | 17.7 | 0.00 | 0.00 | 0.00 | 70 | 1011.4 |
| 20260505005523 | 16 | 227 | 6.4 | 12.9 | 0.00 | 0.00 | 0.00 | 70 | 1011.3 |
| 20260505005024 | 16 | 212 | 6.4 | 11.3 | 0.00 | 0.00 | 0.00 | 70 | 1011.4 |
| 20260505004524 | 16 | 215 | 4.8 | 9.7 | 0.00 | 0.00 | 0.00 | 69 | 1011.4 |
| 20260505004022 | 16 | 234 | 6.4 | 16.1 | 0.00 | 0.00 | 0.00 | 69 | 1011.4 |
| 20260505003525 | 16 | 229 | 6.4 | 16.1 | 0.00 | 0.00 | 0.00 | 68 | 1011.4 |
| 20260505003023 | 16 | 207 | 8.0 | 14.5 | 0.00 | 0.00 | 0.00 | 68 | 1011.3 |
| 20260505002524 | 16 | 204 | 8.0 | 14.5 | 0.00 | 0.00 | 0.00 | 67 | 1011.3 |
| 20260505002022 | 16 | 222 | 6.4 | 17.7 | 0.00 | 0.00 | 0.00 | 66 | 1011.2 |
| 20260505001522 | 17 | 186 | 6.4 | 17.7 | 0.00 | 0.00 | 0.00 | 64 | 1011.2 |
| 20260505001022 | 17 | 205 | 9.7 | 22.5 | 0.00 | 0.00 | 0.00 | 64 | 1011.1 |
| 20260505000521 | 17 | 235 | 9.7 | 22.5 | 0.00 | 0.00 | 0.00 | 63 | 1011.1 |
| 20260505000030 | 17 | 217 | 9.7 | 19.3 | 0.00 | 0.00 | 0.00 | 63 | 1011.0 |
| 20260504235521 | 17 | 216 | 11.3 | 22.5 | 0.00 | 0.00 | 0.00 | 62 | 1011.0 |
| 20260504235021 | 17 | 221 | 11.3 | 22.5 | 0.00 | 0.00 | 0.00 | 62 | 1011.0 |
| 20260504234521 | 17 | 206 | 11.3 | 22.5 | 0.00 | 0.00 | 0.00 | 61 | 1011.0 |
| 20260504234020 | 17 | 237 | 12.9 | 22.5 | 0.00 | 0.00 | 0.00 | 61 | 1010.8 |
| 20260504233520 | 17 | 229 | 11.3 | 22.5 | 0.00 | 0.00 | 0.00 | 60 | 1010.8 |
| 20260504233023 | 18 | 175 | 11.3 | 22.5 | 0.00 | 0.00 | 0.00 | 59 | 1010.8 |
| 20260504232522 | 18 | 219 | 9.7 | 17.7 | 0.00 | 0.00 | 0.00 | 59 | 1010.8 |
| 20260504232019 | 18 | 237 | 8.0 | 17.7 | 0.00 | 0.00 | 0.00 | 59 | 1010.7 |
| 20260504231527 | 18 | 234 | 6.4 | 17.7 | 0.00 | 0.00 | 0.00 | 59 | 1010.7 |
| 20260504231022 | 18 | 208 | 6.4 | 24.1 | 0.00 | 0.00 | 0.00 | 58 | 1010.7 |
| 20260504230521 | 18 | 204 | 11.3 | 17.7 | 0.00 | 0.00 | 0.00 | 57 | 1010.7 |
| 20260504230019 | 18 | 219 | 11.3 | 19.3 | 0.00 | 0.00 | 0.00 | 56 | 1010.8 |
| 20260504225517 | 18 | 238 | 9.7 | 19.3 | 0.00 | 0.00 | 0.00 | 57 | 1010.8 |
| 20260504225017 | 19 | 209 | 8.0 | 16.1 | 0.00 | 0.00 | 0.00 | 57 | 1010.8 |
| 20260504224522 | 19 | 202 | 6.4 | 16.1 | 0.00 | 0.00 | 0.00 | 57 | 1010.7 |
| 20260504224021 | 19 | 184 | 9.7 | 16.1 | 0.00 | 0.00 | 0.00 | 56 | 1010.7 |
| 20260504223521 | 20 | 191 | 6.4 | 14.5 | 0.00 | 0.00 | 0.00 | 55 | 1010.7 |
| 20260504223017 | 20 | 191 | 6.4 | 14.5 | 0.00 | 0.00 | 0.00 | 54 | 1010.6 |
| 20260504222516 | 20 | 212 | 6.4 | 11.3 | 0.00 | 0.00 | 0.00 | 55 | 1010.7 |
| 20260504222016 | 20 | 217 | 4.8 | 12.9 | 0.00 | 0.00 | 0.00 | 54 | 1010.6 |
| 20260504221516 | 20 | 213 | 3.2 | 17.7 | 0.00 | 0.00 | 0.00 | 54 | 1010.6 |
| 20260504221016 | 20 | 219 | 3.2 | 17.7 | 0.00 | 0.00 | 0.00 | 53 | 1010.6 |
| 20260504220515 | 20 | 229 | 1.6 | 12.9 | 0.00 | 0.00 | 0.00 | 53 | 1010.5 |
| 20260504220019 | 20 | 225 | 6.4 | 11.3 | 0.00 | 0.00 | 0.00 | 53 | 1010.6 |
| 20260504215516 | 21 | 219 | 4.8 | 9.7 | 0.00 | 0.00 | 0.00 | 54 | 1010.6 |
| 20260504215014 | 21 | 196 | 3.2 | 14.5 | 0.00 | 0.00 | 0.00 | 54 | 1010.6 |
| 20260504214515 | 21 | 202 | 6.4 | 19.3 | 0.00 | 0.00 | 0.00 | 53 | 1010.6 |
| 20260504214014 | 20 | 229 | 8.0 | 16.1 | 0.00 | 0.00 | 0.00 | 50 | 1010.5 |
| 20260504213514 | 20 | 220 | 8.0 | 16.1 | 0.00 | 0.00 | 0.00 | 52 | 1010.6 |
| 20260504213014 | 21 | 183 | 4.8 | 22.5 | 0.00 | 0.00 | 0.00 | 52 | 1010.6 |
| 20260504212514 | 21 | 238 | 8.0 | 22.5 | 0.00 | 0.00 | 0.00 | 51 | 1010.6 |
| 20260504212013 | 20 | 217 | 8.0 | 25.7 | 0.00 | 0.00 | 0.00 | 51 | 1010.6 |
| 20260504211514 | 20 | 222 | 6.4 | 24.1 | 0.00 | 0.00 | 0.00 | 52 | 1010.7 |
| 20260504211012 | 20 | 222 | 9.7 | 19.3 | 0.00 | 0.00 | 0.00 | 51 | 1010.8 |
| 20260504210511 | 20 | 217 | 9.7 | 16.1 | 0.00 | 0.00 | 0.00 | 53 | 1010.8 |
| 20260504210010 | 20 | 186 | 8.0 | 17.7 | 0.00 | 0.00 | 0.00 | 54 | 1010.9 |
| 20260504205510 | 21 | 169 | 9.7 | 17.7 | 0.00 | 0.00 | 0.00 | 54 | 1010.9 |
| 20260504205012 | 21 | 242 | 4.8 | 14.5 | 0.00 | 0.00 | 0.00 | 53 | 1010.9 |
| 20260504204509 | 20 | 209 | 4.8 | 19.3 | 0.00 | 0.00 | 0.00 | 53 | 1011.0 |
| 20260504204008 | 20 | 190 | 11.3 | 22.5 | 0.00 | 0.00 | 0.00 | 53 | 1011.0 |
| 20260504203508 | 20 | 219 | 8.0 | 20.9 | 0.00 | 0.00 | 0.00 | 55 | 1011.1 |
| 20260504203018 | 20 | 190 | 12.9 | 20.9 | 0.00 | 0.00 | 0.00 | 51 | 1011.1 |
| 20260504202508 | 21 | 242 | 12.9 | 24.1 | 0.00 | 0.00 | 0.00 | 49 | 1011.1 |
| 20260504202006 | 21 | 212 | 8.0 | 17.7 | 0.00 | 0.00 | 0.00 | 51 | 1011.1 |
| 20260504201505 | 21 | 240 | 9.7 | 17.7 | 0.00 | 0.00 | 0.00 | 45 | 1011.2 |
| 20260504201006 | 21 | 206 | 8.0 | 19.3 | 0.00 | 0.00 | 0.00 | 47 | 1011.2 |
| 20260504200506 | 20 | 208 | 11.3 | 19.3 | 0.00 | 0.00 | 0.00 | 47 | 1011.3 |
| 20260504200004 | 21 | 164 | 8.0 | 19.3 | 0.00 | 0.00 | 0.00 | 47 | 1011.3 |
| 20260504195502 | 21 | 246 | 6.4 | 19.3 | 0.00 | 0.00 | 0.00 | 49 | 1011.3 |
| 20260504195002 | 21 | 216 | 6.4 | 22.5 | 0.00 | 0.00 | 0.00 | 52 | 1011.4 |
| 20260504194502 | 21 | 198 | 8.0 | 22.5 | 0.00 | 0.00 | 0.00 | 50 | 1011.5 |
| 20260504194002 | 21 | 264 | 6.4 | 19.3 | 0.00 | 0.00 | 0.00 | 51 | 1011.6 |
| 20260504193559 | 20 | 227 | 9.7 | 19.3 | 0.00 | 0.00 | 0.00 | 48 | 1011.6 |
| 20260504193501 | 20 | 215 | 6.4 | 19.3 | 0.00 | 0.00 | 0.00 | 51 | 1011.7 |
| 20260504193100 | 20 | 231 | 9.7 | 17.7 | 0.00 | 0.00 | 0.00 | 51 | 1011.8 |
| 20260504192600 | 20 | 217 | 11.3 | 22.5 | 0.00 | 0.00 | 0.00 | 52 | 1011.8 |
| 20260504192059 | 20 | 237 | 12.9 | 22.5 | 0.00 | 0.00 | 0.00 | 49 | 1011.8 |
| 20260504192001 | 21 | 227 | 11.3 | 22.5 | 0.00 | 0.00 | 0.00 | 50 | 1011.8 |
| 20260504191559 | 21 | 224 | 6.4 | 17.7 | 0.00 | 0.00 | 0.00 | 53 | 1011.8 |
| 20260504191058 | 21 | 198 | 9.7 | 17.7 | 0.00 | 0.00 | 0.00 | 51 | 1011.8 |
| 20260504190557 | 21 | 183 | 8.0 | 17.7 | 0.00 | 0.00 | 0.00 | 51 | 1011.8 |
| 20260504190125 | 21 | 242 | 8.0 | 17.7 | 0.00 | 0.00 | 0.00 | 51 | 1011.9 |
| 20260504185558 | 21 | 223 | 9.7 | 17.7 | 0.00 | 0.00 | 0.00 | 48 | 1012.0 |
| 20260504185055 | 21 | 226 | 9.7 | 17.7 | 0.00 | 0.00 | 0.00 | 48 | 1012.0 |
| 20260504184558 | 21 | 220 | 4.8 | 16.1 | 0.00 | 0.00 | 0.00 | 38 | 1012.1 |
| 20260504184054 | 21 | 232 | 6.4 | 16.1 | 0.00 | 0.00 | 0.00 | 36 | 1012.2 |
| 20260504183553 | 21 | 272 | 6.4 | 19.3 | 0.00 | 0.00 | 0.00 | 36 | 1012.2 |
| 20260504183051 | 21 | 242 | 9.7 | 17.7 | 0.00 | 0.00 | 0.00 | 36 | 1012.3 |
| 20260504182549 | 21 | 231 | 8.0 | 17.7 | 0.00 | 0.00 | 0.00 | 36 | 1012.4 |
| 20260504182048 | 21 | 205 | 11.3 | 16.1 | 0.00 | 0.00 | 0.00 | 36 | 1012.5 |
| 20260504181553 | 20 | 216 | 6.4 | 17.7 | 0.00 | 0.00 | 0.00 | 38 | 1012.5 |
| 20260504181047 | 20 | 236 | 6.4 | 16.1 | 0.00 | 0.00 | 0.00 | 37 | 1012.6 |
| 20260504180548 | 20 | 215 | 6.4 | 14.5 | 0.00 | 0.00 | 0.00 | 37 | 1012.6 |
| 20260504180120 | 20 | 230 | 9.7 | 14.5 | 0.00 | 0.00 | 0.00 | 39 | 1012.7 |
| 20260504175544 | 20 | 228 | 6.4 | 16.1 | 0.00 | 0.00 | 0.00 | 40 | 1012.7 |
| 20260504175046 | 20 | 225 | 8.0 | 16.1 | 0.00 | 0.00 | 0.00 | 39 | 1012.7 |
| 20260504174545 | 20 | 283 | 6.4 | 16.1 | 0.00 | 0.00 | 0.00 | 40 | 1012.8 |
| 20260504174045 | 20 | 238 | 6.4 | 17.7 | 0.00 | 0.00 | 0.00 | 39 | 1012.8 |
| 20260504173540 | 20 | 223 | 6.4 | 16.1 | 0.00 | 0.00 | 0.00 | 40 | 1012.9 |
| 20260504173048 | 20 | 249 | 6.4 | 17.7 | 0.00 | 0.00 | 0.00 | 40 | 1013.0 |
| 20260504172539 | 20 | 225 | 9.7 | 20.9 | 0.00 | 0.00 | 0.00 | 42 | 1013.0 |
| 20260504172037 | 20 | 213 | 9.7 | 19.3 | 0.00 | 0.00 | 0.00 | 43 | 1013.1 |
| 20260504171537 | 20 | 240 | 11.3 | 19.3 | 0.00 | 0.00 | 0.00 | 43 | 1013.2 |
| 20260504171036 | 20 | 238 | 8.0 | 17.7 | 0.00 | 0.00 | 0.00 | 42 | 1013.3 |
| 20260504170537 | 20 | 262 | 8.0 | 22.5 | 0.00 | 0.00 | 0.00 | 46 | 1013.4 |
| 20260504151015 | 17 | 247 | 12.9 | 27.4 | 0.00 | 0.00 | 0.00 | 56 | 1014.4 |
| 20260504150515 | 17 | 234 | 14.5 | 24.1 | 0.00 | 0.00 | 0.00 | 57 | 1014.4 |
| 20260504141009 | 16 | 202 | 14.5 | 29.0 | 0.00 | 0.00 | 0.00 | 61 | 1014.5 |
| 20260504140505 | 15 | 246 | 12.9 | 27.4 | 0.00 | 0.00 | 0.00 | 62 | 1014.6 |
| 20260504130559 | 15 | 215 | 14.5 | 33.8 | 0.00 | 0.00 | 0.00 | 58 | 1014.9 |
| 20260504120107 | 13 | 226 | 8.0 | 22.5 | 0.00 | 0.00 | 0.00 | 66 | 1015.4 |
| 20260504110530 | 11 | 209 | 6.4 | 12.9 | 0.00 | 0.00 | 0.00 | 73 | 1015.7 |
| 20260504100526 | 11 | 249 | 8.0 | 19.3 | 0.00 | 0.00 | 0.00 | 77 | 1015.7 |
| 20260504081520 | 10 | 222 | 9.7 | 22.5 | 0.00 | 0.00 | 0.00 | 73 | 1015.7 |
| 20260504081022 | 10 | 222 | 8.0 | 16.1 | 0.00 | 0.00 | 0.00 | 73 | 1015.7 |
| 20260504080519 | 10 | 236 | 8.0 | 16.1 | 0.00 | 0.00 | 0.00 | 73 | 1015.7 |
| 20260504050556 | 12 | 236 | 6.4 | 14.5 | 0.00 | 0.00 | 0.00 | 67 | 1015.3 |
| 20260504050131 | 12 | 230 | 8.0 | 16.1 | 0.00 | 0.00 | 0.00 | 66 | 1015.3 |
| 20260504045554 | 12 | 221 | 8.0 | 16.1 | 0.00 | 0.00 | 0.00 | 67 | 1015.4 |
| 20260504045053 | 11 | 233 | 8.0 | 16.1 | 0.00 | 0.00 | 0.00 | 67 | 1015.3 |
| 20260504044555 | 11 | 221 | 6.4 | 14.5 | 0.00 | 0.00 | 0.00 | 67 | 1015.3 |
| 20260504044052 | 11 | 217 | 6.4 | 12.9 | 0.00 | 0.00 | 0.00 | 67 | 1015.2 |
| 20260504043552 | 11 | 219 | 4.8 | 11.3 | 0.00 | 0.00 | 0.00 | 67 | 1015.2 |
| 20260504043058 | 11 | 253 | 4.8 | 12.9 | 0.00 | 0.00 | 0.00 | 68 | 1015.2 |
| 20260504042551 | 12 | 233 | 6.4 | 11.3 | 0.00 | 0.00 | 0.00 | 67 | 1015.1 |
| 20260504042052 | 12 | 211 | 6.4 | 11.3 | 0.00 | 0.00 | 0.00 | 67 | 1015.1 |
| 20260504041548 | 11 | 236 | 4.8 | 14.5 | 0.00 | 0.00 | 0.00 | 67 | 1015.1 |
| 20260504041047 | 11 | 232 | 4.8 | 12.9 | 0.00 | 0.00 | 0.00 | 68 | 1015.1 |
| 20260504040546 | 11 | 243 | 4.8 | 12.9 | 0.00 | 0.00 | 0.00 | 68 | 1015.0 |
| 20260504040044 | 11 | 218 | 4.8 | 11.3 | 0.00 | 0.00 | 0.00 | 68 | 1015.0 |
| 20260504035544 | 11 | 203 | 6.4 | 11.3 | 0.00 | 0.00 | 0.00 | 67 | 1015.0 |